星链-30152 (STARLINK-30152 )

导读

STARLINK-30152是美国SpaceX公司星链星座的成员卫星,于2023年6月4日发射入轨。星链项目旨在构建全球覆盖的低轨卫星互联网,为偏远地区、海洋空域等传统网络盲区提供高速低延迟的宽带服务。 作为量产型低轨卫星,它采用平板设计与霍尔推进技术,具备自主避撞能力,寿命结束后会主动离轨再入大气层焚毁。目前该卫星已在轨运行超2年9个月,是星链星座全球服务网络的重要组成部分,不过星链大规模部署也引发了太空拥堵与天文观测干扰等争议。

基本信息
目录编号:
56828
目录名称:
STARLINK-30152
国际标识:
2023-079F
轨道中心:
EARTH
卫星名称:
星链-30152
卫星全名:
星链-30152 (STARLINK-30152 )
卫星状态:
在轨 (已飞行1188 天)
发射日期:
2023-06-04 UTC
国别 :
美国 (US)
星等 :
--
轨道信息
数据来源 国际轨道数据 AOE轨道数据
星历时间 2026-09-04T04:12:51+0800
11小时前
查看轨道信息
2026-09-04T00:00:00+0800
15小时前
查看轨道信息
半长轴 6861.192km 6861.182km
偏心率 0.0001294 0.0001398
轨道倾角 43.001° 43.000°
近地点辐角 268.663° 246.226°
升交点赤经 181.004° 181.995°
平近点角 91.407° 227.128°
近地点 482.167km 482.085km
远地点 483.943km 484.005km
周期 94.267分钟 94.267分钟
每日圈数 15.275781 15.275815
详细信息
固有亮度:
5
最大亮度:
0.5
卫星平台:
Starlink v2.0 mini
覆盖范围:
全球
运营商:
太空探索技术公司
运营商所在国:
美国
制造商(研发单位):
太空探索技术公司
制造商所在国:
美国
使用方式:
暂无
卫星简介
星链(Starlink)计划是由太空探索技术公司(SpaceX)提出的一个巨型低轨卫星互联网星座项目,计划在2019年至2024年间在太空搭建由约1.2万颗卫星组成的“星链”网络,其中1584颗将部署在地球上空550千米处的近地轨道,并从2020年开始工作。该卫星仍在工作。
2D轨道图
3D轨道图
轨道高度分析图
轨道倾角分析图
轨道综合分析图
查看轨道综合分析图